{"data":{"norad_id":62103,"intl_designator":"2024-220R","name":"STARLINK-33554","alt_names":[],"object_type":"PAYLOAD","status":"ACTIVE","operator":null,"country":"US","launch_date":"2024-11-25","launch_site_code":"AFETR","launch_vehicle":null,"mission":null,"orbit_class":"UNKNOWN","rcs_meters":null,"size_class":null,"mass_kg":null,"dimensions":null,"purposes":["comms"],"wikipedia_slug":null,"has_3d_model":false,"image_url":null,"decayed_at":null,"tle_current":{"epoch":"2026-05-24T23:43:43.718016Z","epoch_age_seconds":83381,"freshness":"FRESH","line1":"1 62103U 24220R   26144.98870044  .00017036  00000+0  62695-3 0  9996","line2":"2 62103  42.9975 134.3459 0001150 292.8058  67.2672 15.27591078 84625","mean_motion":15.27591078,"eccentricity":0.000115,"inclination_deg":42.9975,"raan_deg":134.3459,"arg_perigee_deg":292.8058,"mean_anomaly_deg":67.2672,"bstar":0.00062695,"rev_number":8462,"period_min":94.266065096775,"perigee_km":482.22689213649,"apogee_km":483.80495730917,"semimajor_km":6861.1529247228,"source":"CELESTRAK","updated_at":"2026-05-25T13:38:19.560398Z"}}}